Regional Weather Roundup
Issued by NWS

Home | Current Version | Previous Version | Graphics & Text | Print | Product List | Glossary Off
Versions: 1 2 3 4 5 6 7 8 9 10 11 12 13 14 15 16 17 18 19 20 21 22 23 24 25 26 27 28 29 30 31 32 33 34 35 36 37 38 39 40 41 42 43 44 45 46 47 48 49 50

000
ASUS43 KMKX 271721
RWRWI

WISCONSIN REGIONAL WEATHER ROUNDUP
NATIONAL WEATHER SERVICE MILWAUKEE/SULLIVAN WI
1200 PM CDT THU APR 27 2017

NOTE: "FAIR" INDICATES FEW OR NO CLOUDS BELOW 12,000 FEET WITH NO
SIGNIFICANT WEATHER AND/OR OBSTRUCTIONS TO VISIBILITY.

WIZ001-002-006>008-014>016-023>028-271800-
NORTHWEST WISCONSIN

CITY           SKY/WX    TMP DP  RH WIND       PRES   REMARKS
SUPERIOR ARPT  CLOUDY    28  22  76 CALM      29.54S
ASHLAND        CLOUDY    27  23  85 W10       29.50R WCI  17
HAYWARD        LGT SNOW  27  22  81 VRB6      29.50R WCI  20
SIREN          LGT SNOW  29  24  83 NW8       29.55R WCI  21
CUMBERLAND     CLOUDY    30  25  80 W15       29.51S WCI  19
RICE LAKE      CLOUDY    31  27  86 W13       29.53R WCI  21
CHETEK         NOT AVBL
LADYSMITH      CLOUDY    31  27  84 W9        29.49S WCI  23
EAU CLAIRE     CLOUDY    34  27  75 W14       29.52R WCI  25
MENOMONIE      CLOUDY    34  29  82 W15       29.53R WCI  24
NEW RICHMOND   CLOUDY    32  26  77 W14       29.55R WCI  22
OSCEOLA        CLOUDY    31  26  81 NW12G18   29.59R WCI  22
$$

WIZ003>005-009-010-017-018-271800-
NORTH CENTRAL WISCONSIN

CITY           SKY/WX    TMP DP  RH WIND       PRES   REMARKS
MANITOWISH WTR SNOW      26  26 100 NW12      29.41R VSB 1/2 WCI  16
ARBOR VITAE    LGT SNOW  29  27  92 NW9       29.40R VSB 3/4 WCI  21
WOODRUFF       LGT SNOW  29  27  92 NW9       29.40R VSB 3/4 WCI  21
RHINELANDER    LGT SNOW  30  27  88 NW10      29.40R VSB 3/4 WCI  21
EAGLE RIVER    LGT SNOW  28  26  92 NW13      29.39R VSB 3/4 WCI  18
LAND O LAKES   SNOW      28  26  91 NW9G16    29.40R VSB 1/2 WCI  19
PHILLIPS       SNOW      27  26  96 NW8       29.44R VSB 1/2 WCI  19
TOMAHAWK       LGT SNOW  29  26  89 W8G16     29.44R VSB 1   WCI  21
MEDFORD        LGT SNOW  29  27  91 W8        29.45R WCI  21
MERRILL        LGT SNOW  30  29  96 NW7       29.44R VSB 1   WCI  23
$$

WIZ029-030-035-036-043>047-271800-
CENTRAL WISCONSIN

CITY           SKY/WX    TMP DP  RH WIND       PRES   REMARKS
WAUSAU         SNOW      31  30  96 W14       29.43R VSB 1/2 WCI  21
MOSINEE        LGT SNOW  30  30 100 W13G22    29.45R VSB 3/4 WCI  20
MARSHFIELD     LGT SNOW  31  28  89 NW10      29.46R FOG     WCI  22
STEVENS POINT  MIX PCPN  31  30  97 W9G20     29.46R WCI  22
WAUPACA        LGT SNOW  36  34  92 W16       29.46R WCI  27
WAUTOMA        LGT SNOW  36  34  93 W14       29.50R FOG     WCI  27
WISC RAPIDS    LGT SNOW  33  31  92 NW12      29.49R FOG     WCI  24
CAMP DOUGLAS   CLOUDY    36  32  87 W12       29.52R WCI  27
$$

WIZ011>013-019>022-031-037>040-048>050-271800-
NORTHEAST WISCONSIN

CITY           SKY/WX    TMP DP  RH WIND       PRES   REMARKS
ANTIGO         LGT SNOW  32  32  99 NW9       29.39R WCI  24
SHAWANO        LGT RAIN  36  34  92 W6        29.40R WCI  31
OCONTO         CLOUDY    40  38  90 W9        29.36R WCI  35
STURGEON BAY   CLOUDY    39  37  93 W12       29.37R WCI  32
GREEN BAY      LGT RAIN  41  39  93 W18G24    29.40R
MANITOWOC      CLOUDY    42  38  85 W16G30    29.42R
APPLETON       FLURRIES  36  36 100 W17       29.41R WCI  25
CLINTONVILLE   LGT SNOW  34  32  93 SW9       29.42R WCI  26
OSHKOSH        MIX PCPN  37  34  89 W14G23    29.45R WCI  28
$$

WIZ032>034-041-042-053>061-271800-
SOUTHWEST WISCONSIN

CITY           SKY/WX    TMP DP  RH WIND       PRES   REMARKS
LA CROSSE      CLOUDY    42  33  70 W10       29.54R
SPARTA         CLOUDY    36  33  91 W7        29.53S WCI  30
VIROQUA        CLOUDY    37  33  84 W13G18    29.53R WCI  29
BOSCOBEL       LGT RAIN  43  37  79 W10       29.56S
PRAIRIE DU CHI CLOUDY    40  32  73 W13G22    29.58R WCI  33
PLATTEVILLE    CLOUDY    40  38  92 W22       29.58R WCI  31
$$

WIZ056-057-062-063-064-067-068-271800-
SOUTH CENTRAL WISCONSIN

CITY           SKY/WX    TMP DP  RH WIND       PRES   REMARKS
REEDSBURG      CLOUDY    36  35  97 W10G16    29.52R WCI  28
BARABOO/DELLS  LGT RAIN  36  34  94 W10G17    29.52R WCI  28
LONE ROCK      LGT RAIN  40  35  83 W14       29.55R WCI  32
MINERAL POINT  LGT RAIN  41  39  93 W15       29.54R
MADISON        LGT RAIN  38  36  92 W8        29.53R WCI  32
MIDDLETON      CLOUDY    40  37  89 W16G22    29.53R WCI  31
WATERTOWN      DRIZZLE   38  37  96 W14G23    29.51R WCI  29
MONROE         CLOUDY    37  36  93 W17G28    29.55R WCI  28
JANESVILLE     CLOUDY    39  39 100 W13       29.55R WCI  32
$$

WIZ051-052-058>065-066-070>072-271800-
SOUTHEAST WISCONSIN

CITY           SKY/WX    TMP DP  RH WIND       PRES   REMARKS
MILWAUKEE      LGT RAIN  46  37  71 W23G33    29.50R
WAUKESHA       CLOUDY    37  36  93 W17G23    29.51R WCI  28
MILWAUKEE/TIMM CLOUDY    43  36  75 W12G29    29.49R
RACINE         CLOUDY    46  37  71 W18G29    29.53R
KENOSHA        CLOUDY    46  37  71 W26G33    29.53R
FOND DU LAC    LGT RAIN  38  34  85 W14G21    29.47R WCI  30
SHEBOYGAN      LGT RAIN  42  38  85 W17G31    29.44R
WEST BEND      LGT RAIN  37  36  93 W16G28    29.47R WCI  28
JUNEAU         CLOUDY    36  33  89 W16G23    29.50R WCI  26
$$

LSZ147-162-271800-
LAKE SUPERIOR

STATION/POSITION TIME  TEMP    WIND        PRES    WAVE
                       AIR SEA DIR/SP/G            HT/PER
                 (UTC) (F)     (DEG/KT/KT) (MB)    (FT/S)
DEVILS ISLAND    1700   26     290/ 15/ 17  999.4R
PORT WING        1630   27     300/ 13/ 16 1000.0R
SAXON HARBOR     1640   28     320/ 11/ 14  998.6R
$$

LMZ867-665-643>646-271800-
LAKE MICHIGAN

STATION/POSITION TIME  TEMP    WIND        PRES    WAVE
                       AIR SEA DIR/SP/G            HT/PER
                 (UTC) (F)     (DEG/KT/KT) (MB)    (FT/S)
CHAMBERS ISLAND  1640   38     300/  7/ 12  992.6R
N MID LAKE BUOY  1650   45 37  180/ 14/ 19  992.1F   2/ 4
NORTHPORT PIER   1630   37     320/ 16/ 18  992.2R
SISTER BAY       1621   36     330/ 19/ 22   N/A
KEWAUNEE LAKESHO 1654   43     260/ 11/ 16  994.5R
SHEBOYGAN LAKESH 1700   43     250/ 20/ 26  997.1R
PORT WASHINGTON  1640   44     270/ 13/ 24  998.6R
MILWAUKEE LAKESH 1700   43     270/ 18/ 24   N/A
S MID LAKE BUOY  1650   44 41  260/ 16/ 19  999.9R   4/ 4
KENOSHA   LAKESH 1700   45     250/ 21/ 27 1000.3
$$

TC  - TEMPERATURE IN CELSIUS
VSB - VISIBILITY IN STATUTE MILES
WCI - WIND CHILL INDEX
HX  - HEAT INDEX




USA.gov is the U.S. government's official web portal to all federal, state and local government web resources and services.